Hagerstown, MD

8:55 AM EDT on October 21, 2017 (GMT -0400)
Hagerstown Regional-Henson

Weather History for KHGR - December, 2013

Change the Weather History Date:

Thursday, December 5, 2013

  Actual Average Record
Temperature  
Mean Temperature 56 °F 37 °F  
Max Temperature 65 °F 44 °F 75 °F (2001)
Min Temperature 46 °F 30 °F 21 °F (2002)
Degree Days  
Heating Degree Days 9 28  
Month to date heating degree days 114 135  
Since 1 July heating degree days 1176 1140  
Cooling Degree Days 0 0  
Month to date cooling degree days 0 0  
Year to date cooling degree days 1133 969  
Growing Degree Days 5 (Base 50)    
Moisture  
Dew Point 50 °F    
Average Humidity 84    
Maximum Humidity 100    
Minimum Humidity 67    
Precipitation  
Precipitation 0.00 in 0.11 in 1.20 in (2003)
Month to date precipitation T 0.56  
Year to date precipitation 29.93 36.96  
Sea Level Pressure  
Sea Level Pressure 30.00 in    
Wind  
Wind Speed 5 mph (SSW)    
Max Wind Speed 16 mph    
Max Gust Speed 19 mph    
Visibility 4 miles    
Events Fog , Rain    
T = Trace of Precipitation, MM = Missing Value Source: NWS Daily Summary

Daily Weather History Graph

Daily Weather History Graph

Search for Another Location

Airport or City:

Trip Planner

Search our weather history database for the weather conditions in past years. The results will help you decide how hot, cold, wet, or windy it might be!

Date:

Astronomy

Dec. 05, 2013 Rise Set
Actual Time 7:16 AM EST 4:46 PM EST
Civil Twilight 6:46 AM EST 5:16 PM EST
Nautical Twilight 6:13 AM EST 5:50 PM EST
Astronomical Twilight 5:40 AM EST 6:22 PM EST
Moon 9:35 AM EST (12/5) 8:04 PM EST (12/5)
Length of Visible Light 10h 29m
Length of Day
9h 29m
Waxing Crescent, 10% of the Moon is Illuminated
Dec 5
Waxing Crescent
Dec 9
First Quarter
Dec 17
Full
Dec 25
Last Quarter
Jan 1
New

Hourly Weather History & Observations

Time (EST) Temp. Dew Point Humidity Pressure Visibility Wind Dir Wind Speed Gust Speed Precip Events Conditions
12:20 AM 46.9 °F 45.0 °F 93% 30.05 in 4.0 mi Calm Calm - N/A   Overcast
12:53 AM 48.0 °F 46.0 °F 93% 30.08 in 4.0 mi West 3.5 mph - N/A   Overcast
1:53 AM 46.9 °F 45.0 °F 93% 30.06 in 3.0 mi Calm Calm - N/A   Overcast
2:53 AM 48.9 °F 48.0 °F 97% 30.05 in 4.0 mi Calm Calm - N/A   Overcast
3:53 AM 46.9 °F 46.0 °F 97% 30.06 in 3.0 mi Calm Calm - N/A   Mostly Cloudy
4:24 AM 46.0 °F 45.0 °F 96% 30.01 in 2.5 mi Calm Calm - N/A   Mostly Cloudy
4:35 AM 48.9 °F 46.9 °F 93% 30.01 in 3.0 mi South 3.5 mph - N/A   Mostly Cloudy
4:44 AM 48.0 °F 46.9 °F 96% 30.01 in 2.5 mi SSE 3.5 mph - N/A   Mostly Cloudy
4:53 AM 48.0 °F 46.9 °F 96% 30.04 in 2.5 mi SSE 3.5 mph - N/A   Mostly Cloudy
5:04 AM 48.0 °F 46.9 °F 96% 30.00 in 2.5 mi SSE 3.5 mph - N/A   Overcast
5:26 AM 48.0 °F 46.9 °F 96% 30.00 in 1.8 mi Calm Calm - N/A   Overcast
5:53 AM 48.0 °F 48.0 °F 100% 30.04 in 0.5 mi WNW 3.5 mph - N/A Fog Fog
6:03 AM 46.9 °F 46.9 °F 100% 30.01 in 0.2 mi Calm Calm - N/A Fog Fog
6:14 AM 46.9 °F 46.9 °F 100% 30.01 in 1.0 mi Calm Calm - N/A   Overcast
6:46 AM 48.9 °F 48.0 °F 97% 30.00 in 1.5 mi Calm Calm - N/A   Overcast
6:53 AM 48.9 °F 48.9 °F 100% 30.04 in 1.5 mi South 4.6 mph - N/A   Overcast
7:05 AM 50.0 °F 48.9 °F 96% 30.00 in 2.0 mi South 4.6 mph - N/A   Overcast
7:38 AM 51.1 °F 50.0 °F 96% 30.00 in 1.2 mi South 6.9 mph - N/A   Overcast
7:53 AM 51.1 °F 50.0 °F 96% 30.05 in 1.5 mi SW 3.5 mph - N/A   Overcast
8:21 AM 48.0 °F 48.0 °F 100% 30.02 in 0.8 mi Calm Calm - N/A   Overcast
8:53 AM 50.0 °F 48.9 °F 96% 30.05 in 0.5 mi South 3.5 mph - N/A Fog Fog
9:08 AM 53.1 °F 52.0 °F 96% 30.01 in 2.0 mi South 6.9 mph - N/A   Overcast
9:19 AM 53.1 °F 52.0 °F 96% 30.02 in 3.0 mi South 8.1 mph - N/A   Overcast
9:35 AM 52.0 °F 51.1 °F 97% 30.01 in 2.0 mi Variable 3.5 mph - N/A   Overcast
9:42 AM 52.0 °F 51.1 °F 97% 30.01 in 1.5 mi Variable 3.5 mph - N/A   Overcast
9:50 AM 53.6 °F 53.6 °F 100% 30.01 in 3.0 mi South 8.1 mph - N/A   Overcast
9:53 AM 55.0 °F 53.1 °F 93% 30.05 in 5.0 mi South 9.2 mph - N/A   Overcast
10:10 AM 53.1 °F 51.1 °F 93% 30.01 in 1.8 mi Calm Calm - N/A   Overcast
10:20 AM 55.9 °F 53.1 °F 90% 30.01 in 3.0 mi North - - N/A   Overcast
10:25 AM 57.0 °F 53.1 °F 87% 30.01 in 6.0 mi South 8.1 mph - N/A   Mostly Cloudy
10:49 AM 57.2 °F 53.6 °F 88% 29.99 in 5.0 mi South 11.5 mph - N/A   Haze
10:53 AM 57.9 °F 53.1 °F 84% 30.03 in 5.0 mi SSW 12.7 mph - N/A   Haze
11:16 AM 59.0 °F 53.1 °F 81% 29.97 in 8.0 mi South 11.5 mph - N/A   Partly Cloudy
11:53 AM 60.1 °F 53.1 °F 78% 30.00 in 8.0 mi South 8.1 mph - N/A   Clear
12:53 PM 60.1 °F 53.1 °F 78% 29.96 in 8.0 mi SSE 9.2 mph - N/A   Clear
1:53 PM 64.0 °F 54.0 °F 70% 29.95 in 10.0 mi South 10.4 mph - N/A   Clear
2:53 PM 64.9 °F 55.0 °F 70% 29.94 in 10.0 mi South 5.8 mph - N/A   Clear
3:53 PM 64.0 °F 55.0 °F 73% 29.96 in 10.0 mi South 8.1 mph - N/A   Partly Cloudy
4:53 PM 63.0 °F 55.0 °F 75% 29.95 in 10.0 mi SE 6.9 mph - N/A   Mostly Cloudy
5:53 PM 62.1 °F 55.0 °F 78% 29.97 in 10.0 mi ESE 4.6 mph - N/A   Overcast
6:53 PM 57.0 °F 54.0 °F 89% 29.98 in 6.0 mi WNW 3.5 mph - N/A   Mostly Cloudy
7:53 PM 55.9 °F 53.1 °F 90% 29.97 in 5.0 mi Calm Calm - 0.00 in   Overcast
8:53 PM 54.0 °F 52.0 °F 93% 29.96 in 3.0 mi NW 5.8 mph - 0.00 in   Overcast
9:03 PM 53.1 °F 52.0 °F 96% 29.92 in 2.5 mi Calm Calm - N/A   Overcast
9:53 PM 53.1 °F 52.0 °F 96% 29.95 in 2.5 mi WNW 4.6 mph - N/A   Overcast
10:53 PM 53.1 °F 52.0 °F 96% 29.94 in 2.5 mi WNW 4.6 mph - N/A   Scattered Clouds
11:27 PM 52.0 °F 52.0 °F 100% 29.91 in 1.8 mi WNW 3.5 mph - N/A   Mostly Cloudy
11:53 PM 53.1 °F 52.0 °F 96% 29.94 in 1.5 mi NNW 3.5 mph - 0.00 in Rain Light Rain